Вернуться в каталог

OPS 5112

NAVSTAR 2

АктивенНавигацияHEO
NORAD 10893·PAYLOAD·🇺🇸 United States

Запущен May 13, 1978 с Vandenberg Space Force Base

Loading…

Ближайшие Пролёты (ближайшие 24 часа)

TLE

СвежийSource: Space-Track

Эпоха: Sep 14, 2026, 10:56 UTC

1 10893U 78047A   26257.45613130  .00000007  00000-0  00000-0 0  9999
2 10893  62.6104 269.3521 0548102  41.2680 325.5491  2.01627277355535

Отслеживайте OPS 5112 в реальном времени с AllMySat

Download on the App Store